This demonstration page uses our WeatherBlox Daily Observations layout. Learn more.

Hourly Observations for July 1, 2019

Temp ( °F °C ) Dew Point ( °F °C ) Humidity (%) Winds ( mph kmh ) Pressure ( in mb ) Visibility ( mi km ) Precip ( " mm )
12:15 am 00:15 Clear 75 24.1 65 18.1 69 69 S 9 15 29.91 1013 10 16.09344 0 0
12:35 am 00:35 Clear 75 23.9 64 18 70 70 S 7 11 29.91 1013 10 16.09344 0 0
12:55 am 00:55 Clear 75 23.7 64 17.7 69 69 SSE 7 11 29.91 1013 10 16.09344 0 0
1:15 am 01:15 Clear 76 24.2 64 17.5 66 66 S 13 20 29.91 1013 10 16.09344 0 0
1:35 am 01:35 Clear 75 23.7 64 17.5 68 68 S 12 19 29.91 1013 10 16.09344 0 0
1:55 am 01:55 Clear 74 23.3 64 17.5 70 70 S 9 15 29.94 1014 10 16.09344 0 0
2:15 am 02:15 Clear 73 22.8 64 17.5 72 72 SSW 8 13 29.94 1014 10 16.09344 0 0
2:35 am 02:35 Clear 73 22.7 64 17.5 73 73 SSW 8 13 29.94 1014 10 16.09344 0 0
2:55 am 02:55 Clear 72 22.1 64 17.5 75 75 S 8 13 29.94 1014 10 16.09344 0 0
3:15 am 03:15 Clear 71 21.8 64 17.5 77 77 S 12 19 29.94 1014 10 16.09344 0 0
3:35 am 03:35 Clear 72 22.1 64 17.5 75 75 SSW 12 19 29.94 1014 10 16.09344 0 0
3:55 am 03:55 Clear 71 21.8 64 17.5 77 77 S 7 11 29.94 1014 10 16.09344 0 0
4:15 am 04:15 Clear 71 21.5 64 17.5 78 78 SSW 8 13 29.94 1014 10 16.09344 0 0
4:35 am 04:35 Clear 71 21.5 63 17.3 77 77 SSW 8 13 29.94 1014 10 16.09344 0 0
4:55 am 04:55 Clear 70 20.9 63 17.4 80 80 S 6 9 29.94 1014 10 16.09344 0 0
5:15 am 05:15 Clear 70 21.2 64 17.5 80 80 S 7 11 29.91 1013 10 16.09344 0 0
5:35 am 05:35 Clear 70 21.1 64 17.5 80 80 S 6 9 29.91 1013 10 16.09344 0 0
5:55 am 05:55 Clear 70 21.2 64 17.5 80 80 S 9 15 29.91 1013 10 16.09344 0 0
6:15 am 06:15 Sunny 70 21.1 64 17.6 81 81 S 7 11 29.91 1013 10 16.09344 0 0
6:35 am 06:35 Sunny 70 21 64 17.7 82 82 S 8 13 29.91 1013 10 16.09344 0 0
6:55 am 06:55 Sunny 70 21 64 17.7 82 82 SSE 7 11 29.91 1013 10 16.09344 0 0
7:15 am 07:15 Sunny 70 21.1 64 18 83 83 SSE 8 13 29.91 1013 10 16.09344 0 0
7:35 am 07:35 Sunny 71 21.5 64 18 81 81 SSE 3 6 29.91 1013 10 16.09344 0 0
7:55 am 07:55 Sunny 72 22 65 18.1 79 79 SE 6 9 29.91 1013 10 16.09344 0 0
8:15 am 08:15 Sunny 73 22.5 65 18.2 77 77 S 6 9 29.91 1013 10 16.09344 0 0
8:35 am 08:35 Sunny 73 22.9 65 18.5 76 76 S 9 15 29.91 1013 10 16.09344 0 0
8:55 am 08:55 Sunny 74 23.5 66 19 76 76 S 10 17 29.88 1012 10 16.09344 0 0
9:15 am 09:15 Sunny 76 24.5 66 19 72 72 S 9 15 29.85 1011 10 16.09344 0 0
9:35 am 09:35 Sunny 78 25.5 67 19.3 69 69 S 9 15 29.88 1012 10 16.09344 0 0
9:55 am 09:55 Sunny 79 26.3 67 19.4 66 66 S 10 17 29.88 1012 10 16.09344 0 0
10:15 am 10:15 Sunny 79 26 67 19.3 67 67 SW 9 15 29.88 1012 10 16.09344 0 0
10:35 am 10:35 Sunny 80 26.4 67 19.6 66 66 W 8 13 29.88 1012 10 16.09344 0 0
10:55 am 10:55 Sunny 79 26.2 67 19.6 67 67 WNW 10 17 29.91 1013 10 16.09344 0 0
11:15 am 11:15 Sunny 78 25.8 67 19.6 69 69 WNW 9 15 29.88 1012 10 16.09344 0 0
11:35 am 11:35 Partly Cloudy 79 25.9 67 19.5 68 68 NW 9 15 29.88 1012 10 16.09344 0 0
11:55 am 11:55 Partly Cloudy 79 26 67 19.5 67 67 WNW 7 11 29.88 1012 10 16.09344 0 0
12:15 pm 12:15 Sunny 79 26.1 67 19.2 66 66 W 8 13 29.88 1012 10 16.09344 0 0
12:35 pm 12:35 Sunny 79 26.3 67 19.5 66 66 NW 7 11 29.88 1012 10 16.09344 0 0
12:55 pm 12:55 Sunny 80 26.9 67 19.6 64 64 WNW 7 11 29.88 1012 10 16.09344 0 0
1:15 pm 13:15 Sunny 82 27.5 68 20 64 64 WNW 5 7 29.85 1011 10 16.09344 0 0
1:35 pm 13:35 Sunny 82 28 68 20.2 63 63 Calm 29.85 1011 10 16.09344 0 0
1:55 pm 13:55 Sunny 83 28.3 69 20.3 62 62 NW 5 7 29.83 1010 10 16.09344 0 0
2:15 pm 14:15 Sunny 82 28 69 20.3 63 63 NW 5 7 29.83 1010 10 16.09344 0 0
2:35 pm 14:35 Sunny 84 28.7 69 20.6 62 62 NW 6 9 29.83 1010 10 16.09344 0 0
2:55 pm 14:55 Sunny 85 29.4 69 20.8 60 60 Calm 29.83 1010 10 16.09344 0 0
3:15 pm 15:15 Sunny 85 29.7 70 21 60 60 Calm 29.83 1010 10 16.09344 0 0
3:35 pm 15:35 Partly Cloudy 87 30.3 70 21.1 58 58 Calm 29.8 1009 10 16.09344 0 0
3:55 pm 15:55 Partly Cloudy 88 31.2 71 21.5 56 56 Calm 29.77 1008 10 16.09344 0 0
4:15 pm 16:15 Sunny 87 30.8 70 21.2 57 57 Calm 29.77 1008 10 16.09344 0 0
4:35 pm 16:35 Sunny 87 30.6 71 21.6 59 59 ENE 3 6 29.77 1008 10 16.09344 0 0
4:55 pm 16:55 Partly Cloudy 88 30.9 71 21.9 59 59 Calm 29.77 1008 10 16.09344 0 0
5:15 pm 17:15 Mostly Cloudy 88 30.9 72 22 59 59 E 3 6 29.74 1007 10 16.09344 0 0
5:35 pm 17:35 Mostly Cloudy 89 31.4 68 20.2 51 51 S 10 17 29.74 1007 10 16.09344 0 0
5:55 pm 17:55 Partly Cloudy 86 30 68 19.9 55 55 S 8 13 29.74 1007 10 16.09344 0 0
6:15 pm 18:15 Sunny 85 29.2 68 20.2 58 58 SSE 9 15 29.74 1007 10 16.09344 0 0
6:35 pm 18:35 Partly Cloudy 83 28.4 69 20.3 62 62 S 8 13 29.77 1008 10 16.09344 0 0
6:55 pm 18:55 Partly Cloudy 78 25.7 69 20.6 74 74 W 8 13 29.8 1009 10 16.09344 0 0
7:15 pm 19:15 Partly Cloudy with Light Drizzle 75 24 68 20 78 78 W 6 9 29.8 1009 10 16.09344 0 0
7:35 pm 19:35 Partly Cloudy with Light Drizzle 73 22.7 67 19.5 82 82 WSW 5 7 29.8 1009 10 16.09344 0 0
7:55 pm 19:55 Partly Cloudy with Light Rain 73 22.7 68 19.9 84 84 WNW 5 7 29.85 1011 10 16.09344 0 0
8:15 pm 20:15 Partly Cloudy with Light Rain 73 22.8 68 20 84 84 W 5 7 29.83 1010 10 16.09344 0 0
8:35 pm 20:35 Mostly Cloudy with Light Rain 72 22.1 69 20.5 91 91 W 5 7 29.88 1012 10 16.09344 0 0
8:55 pm 20:55 Partly Cloudy with Light Rain 68 20 65 18.5 91 91 WSW 12 19 29.88 1012 10 16.09344 0.01 0.254
9:15 pm 21:15 Mostly Cloudy with Rain 68 20 65 18.5 91 91 W 12 19 29.88 1012 10 16.09344 0.03 0.762
9:35 pm 21:35 Mostly Cloudy with Rain 69 20.4 67 19.3 93 93 WNW 8 13 29.88 1012 7 11.265408 0.06 1.524
9:55 pm 21:55 Mostly Cloudy with Light Rain 68 20.2 67 19.4 95 95 NW 7 11 29.88 1012 10 16.09344 0.07 1.778
10:15 pm 22:15 Mostly Cloudy with Light Rain 68 20.1 67 19.3 95 95 Calm 29.88 1012 10 16.09344 0.01 0.254
10:35 pm 22:35 Partly Cloudy with Light Rain 68 20.1 67 19.4 96 96 N 8 13 29.88 1012 10 16.09344 0.01 0.254
10:55 pm 22:55 Partly Cloudy with Light Rain 69 20.4 67 19.3 93 93 N 12 19 29.85 1011 10 16.09344 0.01 0.254
11:15 pm 23:15 Clear 69 20.3 67 19.3 94 94 N 14 22 29.88 1012 10 16.09344 0 0
11:35 pm 23:35 Partly Cloudy with Light Rain 68 20.2 66 19 93 93 N 8 13 29.88 1012 10 16.09344 0 0
11:55 pm 23:55 Partly Cloudy with Light Rain 68 20.2 66 19 93 93 N 3 6 29.88 1012 10 16.09344 0 0

Powered by AerisWeather